This is the latest recevied weather packets stored in our database for station/object NM5PB-13. If no packets are shown the sender has not sent any weather packets the latest 10 day(s).
| Time | Temp. | Humidity | Pressure | Rain* | Wind** | Luminosity | Snow |
|---|---|---|---|---|---|---|---|
| 1776908454 | 22.78° C | 71% | 1011 hPa | 0 mm | - | - | - |
| 1776907548 | 22.78° C | 69% | 1010 hPa | 0 mm | - | - | - |
| 1776906645 | 23.33° C | 69% | 1010 hPa | 0 mm | - | - | - |
| 1776905741 | 23.89° C | 68% | 1010 hPa | 0 mm | - | - | - |
| 1776904836 | 24.44° C | 67% | 1010 hPa | 0 mm | - | - | - |
| 1776903928 | 25° C | 65% | 1010 hPa | 0 mm | - | - | - |
| 1776903025 | 25.56° C | 63% | 1010 hPa | 0 mm | - | - | - |
| 1776902121 | 26.11° C | 61% | 1010 hPa | 0 mm | - | - | - |
| 1776901214 | 26.11° C | 60% | 1010 hPa | 0 mm | - | - | - |
| 1776900311 | 26.67° C | 59% | 1010 hPa | 0 mm | - | - | - |
| 1776899408 | 26.67° C | 58% | 1010 hPa | 0 mm | - | - | - |
| 1776898505 | 26.67° C | 55% | 1010 hPa | 0 mm | - | - | - |
| 1776897600 | 26.67° C | 54% | 1010 hPa | 0 mm | - | - | - |
| 1776896697 | 26.67° C | 54% | 1010 hPa | 0 mm | - | - | - |
| 1776895794 | 27.22° C | 51% | 1010 hPa | 0 mm | - | - | - |
| 1776894889 | 27.22° C | 52% | 1011 hPa | 0 mm | - | - | - |
| 1776893985 | 27.22° C | 53% | 1011 hPa | 0 mm | - | - | - |
| 1776893079 | 27.78° C | 49% | 1011 hPa | 0 mm | - | - | - |
| 1776892176 | 27.78° C | 52% | 1011 hPa | 0 mm | - | - | - |
| 1776891272 | 27.78° C | 53% | 1011 hPa | 0 mm | - | - | - |
| 1776890369 | 27.78° C | 49% | 1011 hPa | 0 mm | - | - | - |
| 1776889465 | 27.78° C | 50% | 1011 hPa | 0 mm | - | - | - |
| 1776888560 | 27.78° C | 51% | 1012 hPa | 0 mm | - | - | - |
| 1776887658 | 28.33° C | 49% | 1012 hPa | 0 mm | - | - | - |
| 1776886754 | 27.78° C | 48% | 1012 hPa | 0 mm | - | - | - |
* Rain latest hour (hover to see other rain measurements)
** Current wind speed in m/s (hover to see current wind gust speed)